Regional Weather Roundup
Issued by NWS

Home | Current Version | Previous Version | Graphics & Text | Print | Product List | Glossary On
Versions: 1 2 3 4 5 6 7 8 9 10 11 12 13 14 15 16 17 18 19 20 21 22 23 24 25 26 27 28 29 30 31 32 33 34 35 36 37 38 39 40 41 42 43 44 45 46 47 48 49 50
000
ASUS43 KDTX 270601
RWRMI
MICHIGAN HOURLY REGIONAL WEATHER ROUNDUP
NATIONAL WEATHER SERVICE DETROIT/PONTIAC MI
200 AM EDT FRI MAR 27 2015

NOTE: "FAIR" INDICATES FEW OR NO CLOUDS BELOW 12,000 FEET WITH NO
SIGNIFICANT WEATHER AND/OR OBSTRUCTION TO VISIBILITY.

MIZ047>049-052>055-059>063-066>070-074>076-081>083-270700-
SOUTHEAST LOWER MICHIGAN

CITY           SKY/WX    TMP DP  RH WIND       PRES   REMARKS
ADRIAN         CLOUDY    32  21  64 N14       29.96S WCI  22
6HR MIN TEMP:  32; 6HR MAX TEMP:  37;

ALMA           CLOUDY    23  12  64 NW17G23   30.02S WCI   9
ANN ARBOR      CLOUDY    31  19  61 NW8       29.95S WCI  23
BAD AXE        LGT SNOW  23  19  85 NW12G18   29.95S WCI  12
6HR MIN TEMP:  23; 6HR MAX TEMP:  34;

CARO           CLOUDY    23  16  73 NW10      29.98R WCI  13
DETROIT CITY   CLOUDY    34  22  61 NW10G20   29.93S WCI  26
6HR MIN TEMP:  34; 6HR MAX TEMP:  42;

DETROIT        FLURRIES  34  22  61 NW13      29.94F WCI  25
6HR MIN TEMP:  34; 6HR MAX TEMP:  40; 6HR PCP: TRACE;

FLINT          CLOUDY    27  15  61 NW16G22   29.97S WCI  15
6HR MIN TEMP:  27; 6HR MAX TEMP:  37;

GROSSE ILE     CLOUDY    34  23  64 NW16G22   29.92F WCI  23
HILLSDALE      CLOUDY    31  22  69 N10       29.94S WCI  22
6HR MIN TEMP:  31; 6HR MAX TEMP:  36;

HOWELL         CLOUDY    28  19  68 NW14G20   29.96R WCI  17
6HR MIN TEMP:  28; 6HR MAX TEMP:  36;


CITY           SKY/WX    TMP DP  RH WIND       PRES   REMARKS
JACKSON        CLOUDY    30  21  69 NW12      29.96  WCI  20
6HR MIN TEMP:  29; 6HR MAX TEMP:  36; 6HR PCP: TRACE;

LAMBERTVILLE   CLOUDY    34  25  69 NW7       29.95F WCI  28
LANSING        CLOUDY    27  16  63 NW13G21   30.00R WCI  16
6HR MIN TEMP:  27; 6HR MAX TEMP:  35;

LAPEER         CLOUDY    25  18  74 NW9G18    29.95S WCI  15
MASON          CLOUDY    28  17  64 NW12      29.97S WCI  17
MONROE         CLOUDY    34  25  69 NW9G16    29.92F WCI  26
MT. CLEMENS    CLOUDY    31  23  72 NW13G23   29.91S WCI  21
6HR MIN TEMP:  31; 6HR MAX TEMP:  39; 6HR PCP: TRACE;

PONTIAC        CLOUDY    28  19  69 NW10      29.93S WCI  19
6HR MIN TEMP:  28; 6HR MAX TEMP:  37; 6HR PCP: TRACE;

PORT HOPE        N/A     25  19  78 NW16G23   29.93R WCI  12
6HR MIN TEMP:  24; 6HR MAX TEMP:  36;

PORT HURON     CLOUDY    28  19  69 NW13G18   29.94S WCI  18
TRI CITIES     CLOUDY    23  12  62 NW21      30.01R WCI   8
6HR MIN TEMP:  23; 6HR MAX TEMP:  36;

TROY           CLOUDY    32  22  66 NW8G17    29.95S WCI  25
SAGINAW HB     MOCLDY    23  14  68 NW12      30.00R WCI  12
$$
MIZ043>046-050>051-056>058-064>065-071>073-077>080-270700-
SOUTHWEST LOWER MICHIGAN

CITY           SKY/WX    TMP DP  RH WIND       PRES   REMARKS
BATTLE CREEK   CLOUDY    30  19  63 N13       29.99S WCI  20
6HR MIN TEMP:  30; 6HR MAX TEMP:  35; 6HR PCP: TRACE;

BENTON HARBOR  CLOUDY    27  21  78 VRB7      30.05S WCI  19
6HR MIN TEMP:  27; 6HR MAX TEMP:  33; 6HR PCP: TRACE;

BIG RAPIDS     FLURRIES  21  14  73 NW9       30.02S WCI  11
6HR MIN TEMP:  21; 6HR MAX TEMP:  29;

COLDWATER      CLOUDY    31  23  73 N10       29.97S WCI  22
6HR MIN TEMP:  31; 6HR MAX TEMP:  35;

FREMONT        MOCLDY    22  12  64 N10       30.05S WCI  11
HOLLAND        CLOUDY    27  15  61 N10G16    30.05F WCI  17
6HR MIN TEMP:  27; 6HR MAX TEMP:  33; 6HR PCP: TRACE;

GRAND RAPIDS   MOCLDY    24  14  65 N12       30.03R WCI  13
6HR MIN TEMP:  24; 6HR MAX TEMP:  34; 6HR PCP: TRACE;

IONIA          MOCLDY    25  15  67 N10G18    30.00S WCI  15
KALAMAZOO      CLOUDY    30  21  69 N13       30.00S WCI  20
6HR MIN TEMP:  30; 6HR MAX TEMP:  35; 6HR PCP: TRACE;

LUDINGTON      CLOUDY    23  10  56 NW8G23    30.10S WCI  14
6HR MIN TEMP:  23; 6HR MAX TEMP:  28;

MARSHALL       CLOUDY    28  20  71 NW7       29.97S WCI  21
MOUNT PLEASANT CLOUDY    21  11  63 NW14G21   30.02R WCI   8
6HR MIN TEMP:  21; 6HR MAX TEMP:  31;

MUSKEGON       PTCLDY    23  12  62 N9        30.08F WCI  13
6HR MIN TEMP:  23; 6HR MAX TEMP:  32; 6HR PCP: TRACE;

SOUTH HAVEN    CLOUDY    29  20  71 N14       30.04F WCI  18
$$
MIZ016>042-270700-
NORTHERN LOWER MICHIGAN

CITY           SKY/WX    TMP DP  RH WIND       PRES   REMARKS
ALPENA         LGT SNOW  22  17  81 N13       29.97R WCI  10
6HR MIN TEMP:  21; 6HR MAX TEMP:  30; 6HR PCP:  0.02;

BEAVER ISLAND  MOCLDY    17   6  61 N12G23    30.08S WCI   4
6HR MIN TEMP:  17; 6HR MAX TEMP:  20;

BELLAIRE       CLOUDY    20  13  76 NW6       30.07S WCI  12
6HR MIN TEMP:  18; 6HR MAX TEMP:  22;

CADILLAC       CLOUDY    17   9  70 NW9G23    29.99F WCI   6
CHARLEVOIX     CLOUDY    18  10  69 N16G23    30.09S WCI   4
6HR MIN TEMP:  18; 6HR MAX TEMP:  21;

FRANKFORT      CLOUDY    24   8  50 N10G17    30.09S WCI  14
GAYLORD        LGT SNOW  15  12  88 NW7       29.97R FOG     WCI   5
6HR MIN TEMP:  15; 6HR MAX TEMP:  19; 6HR PCP: TRACE;

GRAYLING       FLURRIES  17  11  75 NW14G21   29.99S WCI   3
6HR MIN TEMP:  17; 6HR MAX TEMP:  22;

HARBOR SPRINGS CLOUDY    17  10  73 N7        30.04S WCI   8
HOUGHTON LAKE  CLOUDY    17  10  74 NW15G25   29.99R WCI   2
6HR MIN TEMP:  17; 6HR MAX TEMP:  23; 6HR PCP: TRACE;

MANISTEE       CLOUDY    21   9  58 N12G20    30.09S WCI   9
OSCODA         LGT SNOW  23  17  78 NW14      29.95R WCI  10
PELLSTON       LGT SNOW  17  11  77 N14       30.05R WCI   3
6HR MIN TEMP:  17; 6HR MAX TEMP:  21; 6HR PCP: TRACE;

ROGERS CITY    FLURRIES  21  16  81 N14G24    30.00R WCI   8
TRAVERSE CITY  CLOUDY    21  11  65 N8        30.06S WCI  11
6HR MIN TEMP:  20; 6HR MAX TEMP:  22; 6HR PCP: TRACE;

$$
MIZ007>008-015-270700-
EASTERN UPPER MICHIGAN

CITY           SKY/WX    TMP DP  RH WIND       PRES   REMARKS
KINROSS        CLEAR     12   9  85 N14       30.03R WCI  -3
6HR MIN TEMP:  12; 6HR MAX TEMP:  19;

MACKINAC ISLAN CLOUDY    17  10  75 N13G22    30.04R WCI   4
6HR MIN TEMP:  17; 6HR MAX TEMP:  22;

NEWBERRY       CLEAR     10   4  75 N7        30.07R WCI  -1
S. S. MARIE    CLEAR     14   2  58 N10       30.04R WCI   1
6HR MIN TEMP:  14; 6HR MAX TEMP:  23; 6HR PCP: TRACE;

$$
MIZ004>006-011>014-085-270700-
CENTRAL UPPER MICHIGAN

CITY           SKY/WX    TMP DP  RH WIND       PRES   REMARKS
MANISTIQUE     CLEAR     14   7  73 N6        30.10R WCI   5
ESCANABA       MOCLDY    16   9  73 NW7       30.13S WCI   6
6HR MIN TEMP:  16; 6HR MAX TEMP:  21;

MENOMINEE      CLEAR     18   5  57 N6        30.14S WCI   9
6HR MIN TEMP:  18; 6HR MAX TEMP:  27;

SAWYER-GWINN   CLOUDY    17   8  70 NE14G22   30.08S WCI   3
6HR MIN TEMP:  16; 6HR MAX TEMP:  18;

$$
MIZ001>003-009>011-084-270700-
WESTERN UPPER MICHIGAN

CITY           SKY/WX    TMP DP  RH WIND       PRES   REMARKS
IRON MOUNTAIN  PTCLDY    10   3  73 N3        30.10F
6HR MIN TEMP:   8; 6HR MAX TEMP:  20; 6HR PCP: TRACE;

HOUGHTON       MOCLDY    15   4  61 N8        30.14F WCI   4
6HR MIN TEMP:   8; 6HR MAX TEMP:  18;

COPPER HARBOR    N/A     12   3  67 NE7       30.17S WCI   1
6HR MIN TEMP:  10; 6HR MAX TEMP:  19;

IRONWOOD       CLOUDY    19   7  58 N8G17     30.15R WCI   9
6HR MIN TEMP:  19; 6HR MAX TEMP:  21;

$$

ABBREVIATIONS USED IN REMARKS
   TC - TEMPERATURE IN CELSIUS
  WCI - WIND CHILL INDEX
   HX - HEAT INDEX
  VSB - VISIBILITY



USA.gov is the U.S. government's official web portal to all federal, state and local government web resources and services.